This is the latest recevied weather packets stored in our database for station/object OE6ATD-13. If no packets are shown the sender has not sent any weather packets the latest 10 day(s).
| Time | Temp. | Humidity | Pressure | Rain* | Wind** | Luminosity | Snow |
|---|---|---|---|---|---|---|---|
| 1777806922 | 25° C | 32% | 1017.5 hPa | 0 mm | - | 843 W/m² | - |
| 1777806319 | 24.44° C | 33% | 1017.7 hPa | 0 mm | - | 845 W/m² | - |
| 1777805729 | 24.44° C | 33% | 1017.8 hPa | 0 mm | - | 846 W/m² | - |
| 1777805125 | 24.44° C | 33% | 1018 hPa | 0 mm | - | 844 W/m² | - |
| 1777804521 | 24.44° C | 33% | 1018 hPa | 0 mm | - | 849 W/m² | - |
| 1777803923 | 23.89° C | 35% | 1018.1 hPa | 1.02 mm | - | 851 W/m² | - |
| 1777803318 | 23.89° C | 37% | 1018.3 hPa | 1.02 mm | - | 846 W/m² | - |
| 1777802729 | 23.33° C | 38% | 1018.4 hPa | 1.02 mm | - | 837 W/m² | - |
| 1777802125 | 23.33° C | 40% | 1018.4 hPa | 1.02 mm | - | 809 W/m² | - |
| 1777801521 | 22.78° C | 40% | 1018.5 hPa | 1.02 mm | - | 752 W/m² | - |
| 1777800917 | 22.78° C | 40% | 1018.6 hPa | 1.02 mm | - | 782 W/m² | - |
| 1777800328 | 22.22° C | 41% | 1018.6 hPa | 0 mm | - | 747 W/m² | - |
| 1777799729 | 22.22° C | 39% | 1018.7 hPa | 0 mm | - | 763 W/m² | - |
| 1777799124 | 22.22° C | 36% | 1018.6 hPa | 0 mm | - | 755 W/m² | - |
| 1777798520 | 22.22° C | 40% | 1018.7 hPa | 0 mm | - | 738 W/m² | - |
| 1777797916 | 21.67° C | 39% | 1018.8 hPa | 0 mm | - | 704 W/m² | - |
| 1777797327 | 21.67° C | 38% | 1018.8 hPa | 0 mm | - | 680 W/m² | - |
| 1777796723 | 21.11° C | 39% | 1018.8 hPa | 0 mm | - | 665 W/m² | - |
| 1777796119 | 21.11° C | 40% | 1018.8 hPa | 0 mm | - | 654 W/m² | - |
| 1777795529 | 21.11° C | 41% | 1018.8 hPa | 0 mm | - | 610 W/m² | - |
| 1777794925 | 20.56° C | 42% | 1018.8 hPa | 0 mm | - | 602 W/m² | - |
| 1777794321 | 20° C | 43% | 1018.9 hPa | 0 mm | - | 537 W/m² | - |
| 1777793717 | 20° C | 44% | 1018.9 hPa | 0 mm | - | 545 W/m² | - |
| 1777793128 | 18.89° C | 45% | 1018.8 hPa | 0 mm | - | 510 W/m² | - |
| 1777792523 | 18.33° C | 48% | 1018.8 hPa | 0 mm | - | 480 W/m² | - |
* Rain latest hour (hover to see other rain measurements)
** Current wind speed in m/s (hover to see current wind gust speed)